Погода в Волоскове

Россия / Тверская область     57°14′15″N   36°40′24″E
темп.,
°C
ветер,
м/с
пор.,
м/с
влажн.,
%
обл.,
%
осадки,
мм/ч
давл.,
гПа
погр.,
м
21 апреля, ср
ср2100:00+4в41097100 0.6 1014927
03:00+3всв3997100 2.2 1011659
06:00+2всв41097100 2.1 1007498
09:00+1св3899100 5.6 1005344
12:00+2ссз1299100 2.6 1003192
15:00+2зюз3799100 3.1 1004362
18:00+3зюз3894100 0.1 1006747
21:00+3ююз3896100 0.1 1008347
22 апреля, чт
чт2200:00+3ююз389573 0.1 1009307
03:00+2ююз399591 0.1 1010249
06:00+3ю3109579 0.0 1011318
09:00+6ююз4882100 0.0 1012480
12:00+9ююз597388 0.1 10121183
15:00+11ююз486994 0.5 10121365
18:00+10ю59795 0.6 1013773
21:00+7ююв413915 0.6 1013412
23 апреля, пт
пт2300:00+7ююв4139393 0.0 1012410
03:00+6ююв3109789 0.0 1012307
06:00+6ююв4149596 0.0 1012432
09:00+10ююз61181100 0.0 1012948
12:00+11ююз597698 0.1 10131263
15:00+8зсз3489100 0.2 1014359
18:00+6з3592100 0.6 1014425
21:00+4ююв119799 3.7 101412
24 апреля, сб
сб2400:00+4в259875 0.1 1011116
03:00+7ююв4129299 0.2 1008526
06:00+7юв41193100 0.2 1006633
09:00+6ююз2896100 1.8 1004659
12:00+3зюз2497100 0.7 1006289
15:00+3зюз3697100 1.6 1006589
18:00+4з3897100 0.5 1006660
21:00+3зюз3596100 0.6 1006496
25 апреля, вс
вс2500:00+3юз2696100 0.0 1005437
03:00+3юз3795100 0.1 1005415
06:00+2зюз3993100 0.0 1005441
09:00+4зюз4778100 0.0 1005781
12:00+7зюз566095 0.3 10061601
15:00+7зюз566273 0.8 10071545
18:00+6з356135 0.1 10071208
21:00+2юз268455 0.2 1008128